• în România
  • Lista ţărilor
  • Pe 7 zile
  • Temperatura apei
  • Hartă satelitară
  • Meteo pe hartă
  • Widget-uri
  • user-avatar
    Intrare

    Meteo pe oră la Yulara

    Astăzi, 21 Noiembrie, Marţi

    Timp Temperatura Precipitaţii Vânt Presiune Umiditate
    00:00 +32°C° 0 mm 6 m/s 714 mmHg 21%
    01:00 +30°C° 0 mm 6 m/s 714 mmHg 22%
    02:00 +29°C° 0 mm 6 m/s 714 mmHg 24%
    03:00 +29°C° 0 mm 5 m/s 714 mmHg 25%
    04:00 +28°C° 0 mm 5 m/s 714 mmHg 27%
    05:00 +28°C° 0 mm 5 m/s 714 mmHg 30%
    06:00 +27°C° 0 mm 4 m/s 714 mmHg 32%
    07:00 +29°C° 0 mm 5 m/s 714 mmHg 27%
    08:00 +32°C° 0 mm 5 m/s 715 mmHg 22%
    09:00 +34°C° 0 mm 4 m/s 715 mmHg 19%
    10:00 +36°C° 0 mm 5 m/s 715 mmHg 16%
    11:00 +37°C° 0 mm 5 m/s 714 mmHg 14%
    12:00 +39°C° 0 mm 6 m/s 714 mmHg 11%
    13:00 +40°C° 0 mm 6 m/s 714 mmHg 10%
    14:00 +41°C° 0 mm 7 m/s 713 mmHg 9%
    15:00 +42°C° 0 mm 9 m/s 713 mmHg 8%
    16:00 +41°C° 0 mm 8 m/s 713 mmHg 9%
    17:00 +40°C° 0 mm 8 m/s 713 mmHg 9%
    18:00 +39°C° 0 mm 8 m/s 713 mmHg 9%
    19:00 +38°C° 0 mm 7 m/s 713 mmHg 11%
    20:00 +35°C° 0 mm 6 m/s 713 mmHg 12%
    21:00 +34°C° 0 mm 5 m/s 714 mmHg 13%
    22:00 +33°C° 0 mm 5 m/s 714 mmHg 14%
    23:00 +32°C° 0 mm 5 m/s 713 mmHg 14%

    Mâine, 22 Noiembrie, Miercuri

    Timp Temperatura Precipitaţii Vânt Presiune Umiditate
    00:00 +32°C° 0 mm 5 m/s 713 mmHg 15%
    01:00 +30°C° 0 mm 5 m/s 713 mmHg 16%
    02:00 +30°C° 0 mm 5 m/s 713 mmHg 16%
    03:00 +29°C° 0 mm 5 m/s 713 mmHg 17%
    04:00 +29°C° 0 mm 6 m/s 713 mmHg 19%
    05:00 +29°C° 0 mm 7 m/s 713 mmHg 21%
    06:00 +29°C° 0 mm 8 m/s 713 mmHg 23%
    07:00 +32°C° 0 mm 7 m/s 713 mmHg 22%
    08:00 +34°C° 0 mm 6 m/s 714 mmHg 21%
    09:00 +35°C° 0 mm 5 m/s 714 mmHg 19%
    10:00 +37°C° 0 mm 5 m/s 714 mmHg 18%
    11:00 +38°C° 0 mm 4 m/s 713 mmHg 17%
    12:00 +40°C° 0 mm 4 m/s 713 mmHg 15%
    13:00 +40°C° 0 mm 4 m/s 713 mmHg 15%
    14:00 +41°C° 0 mm 4 m/s 712 mmHg 14%
    15:00 +41°C° 0 mm 5 m/s 712 mmHg 13%
    16:00 +41°C° 0 mm 5 m/s 712 mmHg 15%
    17:00 +40°C° 0 mm 6 m/s 712 mmHg 16%
    18:00 +39°C° 0 mm 6 m/s 712 mmHg 17%
    19:00 +38°C° 0 mm 7 m/s 712 mmHg 21%
    20:00 +35°C° 0 mm 9 m/s 712 mmHg 26%
    21:00 +33°C° 0 mm 10 m/s 713 mmHg 30%
    22:00 +32°C° 0 mm 10 m/s 713 mmHg 34%
    23:00 +29°C° 0 mm 11 m/s 713 mmHg 38%

    Poimâine, 23 Noiembrie, Joi

    Timp Temperatura Precipitaţii Vânt Presiune Umiditate
    00:00 +28°C° 0 mm 11 m/s 714 mmHg 42%
    01:00 +27°C° 0 mm 11 m/s 714 mmHg 45%
    02:00 +26°C° 0 mm 10 m/s 714 mmHg 47%
    03:00 +24°C° 0 mm 10 m/s 714 mmHg 50%
    04:00 +23°C° 0 mm 9 m/s 714 mmHg 49%
    05:00 +23°C° 0 mm 9 m/s 714 mmHg 48%
    06:00 +22°C° 0 mm 8 m/s 715 mmHg 46%
    07:00 +24°C° 0 mm 8 m/s 715 mmHg 42%
    08:00 +26°C° 0 mm 8 m/s 716 mmHg 38%
    09:00 +28°C° 0 mm 8 m/s 716 mmHg 34%
    10:00 +29°C° 0 mm 7 m/s 716 mmHg 32%
    11:00 +30°C° 0 mm 6 m/s 715 mmHg 30%
    12:00 +33°C° 0 mm 4 m/s 715 mmHg 28%
    13:00 +33°C° 0 mm 4 m/s 715 mmHg 26%
    14:00 +34°C° 0 mm 3 m/s 714 mmHg 25%
    15:00 +35°C° 0 mm 3 m/s 713 mmHg 23%
    16:00 +35°C° 0 mm 4 m/s 713 mmHg 23%
    17:00 +35°C° 0 mm 4 m/s 713 mmHg 23%
    18:00 +35°C° 0 mm 5 m/s 713 mmHg 23%
    19:00 +33°C° 0 mm 7 m/s 714 mmHg 24%
    20:00 +32°C° 0 mm 8 m/s 714 mmHg 26%
    21:00 +29°C° 0 mm 10 m/s 714 mmHg 27%
    22:00 +28°C° 0 mm 9 m/s 715 mmHg 29%
    23:00 +27°C° 0 mm 9 m/s 715 mmHg 31%

    24 Noiembrie, Vineri

    Timp Temperatura Precipitaţii Vânt Presiune Umiditate
    00:00 +26°C° 0 mm 8 m/s 715 mmHg 32%
    01:00 +26°C° 0 mm 8 m/s 715 mmHg 35%
    02:00 +24°C° 0 mm 7 m/s 715 mmHg 38%
    03:00 +24°C° 0 mm 7 m/s 714 mmHg 41%
    04:00 +23°C° 0 mm 7 m/s 715 mmHg 45%
    05:00 +23°C° 0 mm 7 m/s 715 mmHg 48%
    06:00 +22°C° 0 mm 7 m/s 715 mmHg 52%
    07:00 +24°C° 0 mm 7 m/s 716 mmHg 47%
    08:00 +26°C° 0 mm 7 m/s 716 mmHg 42%
    09:00 +28°C° 0 mm 7 m/s 717 mmHg 37%
    10:00 +30°C° 0 mm 6 m/s 716 mmHg 34%
    11:00 +32°C° 0 mm 5 m/s 716 mmHg 30%
    12:00 +34°C° 0 mm 4 m/s 716 mmHg 27%
    13:00 +35°C° 0 mm 3 m/s 715 mmHg 25%
    14:00 +36°C° 0 mm 2 m/s 714 mmHg 23%
    15:00 +36°C° 0 mm 1 m/s 714 mmHg 21%
    16:00 +36°C° 0 mm 1 m/s 714 mmHg 20%
    17:00 +36°C° 0 mm 1 m/s 714 mmHg 20%
    18:00 +36°C° 0 mm 1 m/s 714 mmHg 19%
    19:00 +36°C° 0 mm 2 m/s 714 mmHg 20%
    20:00 +36°C° 0 mm 3 m/s 714 mmHg 22%
    21:00 +35°C° 0 mm 3 m/s 715 mmHg 23%
    22:00 +34°C° 0 mm 4 m/s 715 mmHg 25%
    23:00 +33°C° 0 mm 5 m/s 714 mmHg 27%

    25 Noiembrie, Sâmbătă

    Timp Temperatura Precipitaţii Vânt Presiune Umiditate
    00:00 +32°C° 0 mm 6 m/s 714 mmHg 28%
    01:00 +30°C° 0 mm 6 m/s 714 mmHg 28%
    02:00 +30°C° 0 mm 7 m/s 714 mmHg 28%
    03:00 +29°C° 0 mm 7 m/s 713 mmHg 28%
    04:00 +29°C° 0 mm 7 m/s 714 mmHg 28%
    05:00 +28°C° 0 mm 7 m/s 714 mmHg 29%
    06:00 +28°C° 0 mm 7 m/s 714 mmHg 29%
    07:00 +31°C° 0 mm 8 m/s 715 mmHg 29%
    08:00 +33°C° 0 mm 8 m/s 715 mmHg 30%
    09:00 +34°C° 0 mm 8 m/s 716 mmHg 30%
    10:00 +37°C° 0 mm 8 m/s 715 mmHg 28%
    11:00 +38°C° 0 mm 7 m/s 715 mmHg 26%
    12:00 +40°C° 0 mm 6 m/s 714 mmHg 24%
    13:00 +40°C° 0 mm 5 m/s 713 mmHg 23%
    14:00 +40°C° 0 mm 4 m/s 713 mmHg 22%
    15:00 +39°C° 0 mm 3 m/s 712 mmHg 21%
    16:00 +39°C° 0 mm 3 m/s 712 mmHg 21%
    17:00 +39°C° 0 mm 2 m/s 712 mmHg 21%
    18:00 +39°C° 0 mm 2 m/s 712 mmHg 20%
    19:00 +37°C° 0,3 mm 4 m/s 713 mmHg 25%
    20:00 +36°C° 0,3 mm 6 m/s 713 mmHg 30%
    21:00 +34°C° 0,3 mm 8 m/s 714 mmHg 35%
    22:00 +32°C° 3,5 mm 7 m/s 714 mmHg 44%
    23:00 +29°C° 3,5 mm 7 m/s 714 mmHg 52%

    26 Noiembrie, Duminică

    Timp Temperatura Precipitaţii Vânt Presiune Umiditate
    00:00 +27°C° 3,5 mm 7 m/s 713 mmHg 60%
    01:00 +26°C° 0,2 mm 7 m/s 713 mmHg 63%
    02:00 +26°C° 0,2 mm 7 m/s 713 mmHg 65%
    03:00 +26°C° 0,2 mm 7 m/s 713 mmHg 67%
    04:00 +26°C° 0 mm 6 m/s 713 mmHg 66%
    05:00 +26°C° 0 mm 6 m/s 714 mmHg 65%
    06:00 +26°C° 0 mm 6 m/s 714 mmHg 64%
    07:00 +27°C° 0 mm 5 m/s 714 mmHg 59%
    08:00 +29°C° 0 mm 5 m/s 714 mmHg 54%
    09:00 +30°C° 0 mm 4 m/s 715 mmHg 49%
    10:00 +33°C° 0 mm 4 m/s 714 mmHg 44%
    11:00 +34°C° 0 mm 3 m/s 714 mmHg 38%
    12:00 +36°C° 0 mm 3 m/s 713 mmHg 33%
    13:00 +37°C° 0 mm 3 m/s 713 mmHg 30%
    14:00 +37°C° 0 mm 3 m/s 713 mmHg 27%
    15:00 +38°C° 0 mm 4 m/s 712 mmHg 24%
    16:00 +38°C° 0 mm 4 m/s 712 mmHg 24%
    17:00 +39°C° 0 mm 5 m/s 712 mmHg 24%
    18:00 +37°C° 0 mm 5 m/s 713 mmHg 24%
    19:00 +36°C° 0 mm 6 m/s 713 mmHg 29%
    20:00 +34°C° 0 mm 7 m/s 713 mmHg 34%
    21:00 +32°C° 0 mm 7 m/s 713 mmHg 40%
    22:00 +32°C° 0 mm 7 m/s 713 mmHg 41%
    23:00 +30°C° 0 mm 6 m/s 713 mmHg 42%
    Arată mai mult